Regional Weather Roundup
Issued by NWS

Home | Current Version | Previous Version | Text Only | Print | Product List | Glossary On
Versions: 1 2 3 4 5 6 7 8 9 10 11 12 13 14 15 16 17 18 19 20 21 22 23 24 25 26 27 28 29 30 31 32 33 34 35 36 37 38 39 40 41 42 43 44 45 46 47 48 49 50
000
ASUS43 KDMX 290401
RWRIA

WEATHER ROUNDUP FOR IOWA
NATIONAL WEATHER SERVICE DES MOINES IA
1100 PM CDT FRI APR 28 2017

NOTE: "FAIR" INDICATES FEW OR NO CLOUDS BELOW 12,000 FEET WITH NO
SIGNIFICANT WEATHER AND/OR OBSTRUCTIONS TO VISIBILITY.

* - THESE STATIONS ARE NOT NWS STATIONS...THUS NOT UNDER NWS
QUALITY CONTROL.  THEY ALSO DO NOT REPORT WEATHER SUCH
AS PRECIPITATION OR FOG.

IAZ001>003-012>014-020>022-031>034-043>046-290500-
   NORTHWEST IOWA

CITY           SKY/WX    TMP DP  RH WIND       PRES   REMARKS
CARROLL *      CLOUDY    41  41 100 N7        30.06S
DENISON *      CLOUDY    43  37  81 NE8G14    30.09R
LE MARS *      CLOUDY    41  34  75 NE3       30.11R
ORANGE CITY *  PTCLDY    43  34  70 NE5       30.09R
SHELDON *      CLOUDY    37  32  81 N7        30.08R WCI  32
SIOUX CITY     CLOUDY    46  34  62 NE7       30.10R
SPENCER        CLOUDY    38  32  79 N8        30.09R WCI  32
$$

IAZ055>058-069>071-079>083-090>094-290500-
   SOUTHWEST IOWA

CITY           SKY/WX    TMP DP  RH WIND       PRES   REMARKS
ATLANTIC *     CLOUDY    43  39  87 NE10      30.04R
AUDUBON *      CLOUDY    43  37  81 N10G16    30.05S
CLARINDA *     CLOUDY    45  43  93 NE7G14    30.04R
COUNCIL BLFS * CLOUDY    41  41 100 N12       30.04R
CRESTON *      CLOUDY    43  41  93 NE14      30.01S
HARLAN  *      CLOUDY    43  41  93 NE10      30.08R
LAMONI         CLOUDY    43  42  97 NE12      29.99R
RED OAK *      CLOUDY    43  39  87 NE10      30.03R
SHENANDOAH *   CLOUDY    43  41  93 NE12      30.03R
$$

IAZ047>049-059>061-072>074-084-290500-
   CENTRAL IOWA

CITY           SKY/WX    TMP DP  RH WIND       PRES   REMARKS
AMES           CLOUDY    43  39  86 NE9       30.05R
ANKENY *       CLOUDY    43  39  87 NE9       30.05S
BOONE *        CLOUDY    43  41  93 NE7       30.05R
CHARITON *     CLOUDY    43  41  93 NE13      30.00F
DES MOINES     CLOUDY    45  38  76 NE10      30.03R
GRINNELL*      CLOUDY    42  40  90 NE10      30.04R
KNOXVILLE *    CLOUDY    43  41  93 NE10G16   30.01S
MARSHALLTOWN   CLOUDY    43  39  86 NE12      30.03R
NEWTON *       CLOUDY    43  41  93 NE10      30.02S
PELLA *        CLOUDY    43  40  91 NE7       30.03S
PERRY *        CLOUDY    43  39  84 NE8       30.05R
$$

IAZ004>006-015-016-023>025-035-036-290500-
   NORTH CENTRAL IOWA

CITY           SKY/WX    TMP DP  RH WIND       PRES   REMARKS
ALGONA *       CLOUDY    39  34  81 NE5       30.08R
CLARION *      CLOUDY    41  41 100 NE9       30.06R
ESTHERVILLE    CLOUDY    35  32  88 N10       30.07R WCI  27
FORT DODGE *   CLOUDY    43  36  75 N7        30.09R
MASON CITY     MOCLDY    39  33  79 N8        30.08R WCI  33
FOREST CITY *    N/A     39  32  75 NE6       30.06R WCI  35
WEBSTER CITY * CLOUDY    43  37  81 NE6       30.05R
IOWA FALLS *   CLOUDY    42  38  86 NE6       30.06R
$$

IAZ007>011-017>019-026>030-037>042-050>054-066-290500-
   NORTHEAST IOWA

CITY           SKY/WX    TMP DP  RH WIND       PRES   REMARKS
CEDAR RAPIDS   CLOUDY    44  43  96 NE13      30.01R FOG
CHARLES CITY * CLOUDY    41  37  87 N6        30.05R
CLINTON *      CLOUDY    45  44  97 NE14      30.01R FOG
DECORAH *      CLOUDY    43  36  75 N7        30.03S
DUBUQUE        CLOUDY    44  41  89 NE12      30.02R
MONTICELLO *   CLOUDY    45  41  87 N6        30.03R
OELWEIN *      CLOUDY    43  41  93 NE10      30.04R
WATERLOO       CLOUDY    43  38  82 NE6       30.05R
$$

IAZ064-065-067-068-078-290500-
   EAST CENTRAL IOWA

CITY           SKY/WX    TMP DP  RH WIND       PRES   REMARKS
DAVENPORT      CLOUDY    46  44  93 NE10      30.00R
IOWA CITY      CLOUDY    46  43  89 N14       30.03R
MUSCATINE *    CLOUDY    46  45  93 NE13      30.00R
QUAD CITIES    CLOUDY    49  45  86 N5        29.98R
$$

IAZ062-063-075>077-085>089-095>099-290500-
   SOUTHEAST IOWA

CITY           SKY/WX    TMP DP  RH WIND       PRES   REMARKS
BURLINGTON     CLOUDY    50  49  96 N10       29.96R FOG
FAIRFIELD *    CLOUDY    45  45 100 N12       30.00R
FORT MADISON * CLOUDY    48  48 100 N8        29.97R FOG
KEOKUK *       CLOUDY    48  48 100 N9        29.95S FOG
OSKALOOSA *    CLOUDY    42  41  95 NE13      30.02R
OTTUMWA        CLOUDY    44  44 100 N13       30.01R
WASHINGTON *   CLOUDY    45  45 100 NE13G20   30.01R
$$

ABBREVIATIONS USED IN REMARKS
   TC - TEMPERATURES IN CELSIUS
  WCI - WIND CHILL INDEX
   HX - HEAT INDEX
  VSB - VISIBILITY
$$





USA.gov is the U.S. government's official web portal to all federal, state and local government web resources and services.